This demonstration page uses our WeatherBlox Daily Observations layout. Learn more.

Left ArrowRight Arrow

Hourly Observations for May 5, 2019

Temp ( °F °C ) Dew Point ( °F °C ) Humidity (%) Winds ( mph kmh ) Pressure ( in mb ) Visibility ( mi km ) Precip ( " mm )
12:52 am 00:52 Cloudy 58 14.4 54 12.2 87 87 SE 7 11 29.84 1011 10 16 0.00 0.00
1:52 am 01:52 Cloudy 57 13.9 53 11.7 87 87 SE 6 9 29.83 1010 10 16 0.00 0.00
2:52 am 02:52 Mostly Cloudy 57 13.9 52 11.1 83 83 SE 7 11 29.83 1010 10 16 0.00 0.00
3:52 am 03:52 Mostly Cloudy 57 13.9 52 11.1 83 83 SSE 8 13 29.82 1010 10 16 0.00 0.00
4:52 am 04:52 Mostly Cloudy 57 13.9 51 10.6 81 81 SSE 9 15 29.81 1009 10 16 0.00 0.00
5:52 am 05:52 Mostly Cloudy 58 14.4 50 10 75 75 S 7 11 29.80 1009 10 16 0.00 0.00
6:52 am 06:52 Partly Cloudy 59 15 51 10.6 75 75 S 8 13 29.82 1010 10 16 0.00 0.00
7:52 am 07:52 Mostly Cloudy 61 16.1 52 11.1 72 72 S 7 11 29.84 1010 10 16 0.00 0.00
8:52 am 08:52 Mostly Cloudy 64 17.8 53 11.7 68 68 S 8 13 29.84 1010 10 16 0.00 0.00
9:52 am 09:52 Mostly Sunny 68 20 54 12.2 61 61 S 7 11 29.82 1010 10 16 0.00 0.00
10:52 am 10:52 Mostly Sunny 71 21.7 54 12.2 55 55 S 8 13 29.81 1010 10 16 0.00 0.00
11:52 am 11:52 Partly Cloudy 73 22.8 53 11.7 50 50 S 9 15 29.80 1009 10 16 0.00 0.00
12:52 pm 12:52 Mostly Cloudy 76 24.4 50 10 40 40 SSW 14 22 29.79 1009 10 16 0.00 0.00
1:52 pm 13:52 Mostly Cloudy 78 25.6 50 10 37 37 SSW 9 15 29.77 1008 10 16 0.00 0.00
2:52 pm 14:52 Mostly Cloudy 78 25.6 48 8.9 35 35 SSE 9 15 29.75 1008 10 16 0.00 0.00
3:52 pm 15:52 Mostly Cloudy 78 25.6 42 5.6 28 28 S 10 17 29.73 1007 10 16 0.00 0.00
4:52 pm 16:52 Mostly Cloudy 76 24.4 46 7.8 35 35 S 9 15 29.70 1006 10 16 0.00 0.03
5:52 pm 17:52 Mostly Cloudy 75 23.9 50 10 41 41 SE 8 13 29.70 1006 10 16 0.00 0.00
6:39 pm 18:39 Mostly Cloudy with Nearby Thunderstorms 73 22.8 51 10.6 46 46 E 6 9 29.68 1005 10 16 0.00 0.00
6:52 pm 18:52 Mostly Cloudy with Nearby Thunderstorms 70 21.1 54 12.2 57 57 E 10 17 29.70 1006 10 16 0.00 0.00
6:59 pm 18:59 Windy with Storms Likely 70 21.1 54 12.2 57 57 ESE 22 35 29.67 1005 10 16 0.00 0.03
7:36 pm 19:36 Mostly Cloudy 73 22.8 52 11.1 48 48 E 8 13 29.69 1006 10 16 0.00 0.03
7:52 pm 19:52 Mostly Cloudy 71 21.7 52 11.1 51 51 ENE 8 13 29.70 1006 10 16 0.00 0.03
8:19 pm 20:19 Mostly Cloudy 73 22.8 47 8.3 40 40 S 16 26 29.70 1006 10 16 0.00 0.00
8:52 pm 20:52 Mostly Cloudy 72 22.2 44 6.7 37 37 WSW 9 15 29.75 1008 10 16 0.00 0.00
9:52 pm 21:52 Mostly Cloudy 63 17.2 54 12.2 73 73 NNW 10 17 29.80 1009 10 16 0.00 0.00
10:52 pm 22:52 Partly Cloudy 62 16.7 54 12.2 75 75 VRB 3 6 29.81 1010 10 16 0.00 0.00
11:52 pm 23:52 Mostly Cloudy 62 16.7 54 12.2 75 75 E 10 17 29.82 1010 10 16 0.00 0.00

Powered by AerisWeather